Minneapolis Flying Cloud, MN

4:14 PM CST on November 13, 2019 (GMT -0600)
Flying Cloud

Weather History for KFCM - September, 2019

Change the Weather History Date:

Monday, September 16, 2019

  Actual Average Record
Temperature  
Mean Temperature 75 °F -  
Max Temperature 86 °F 71 °F 91 °F (2018)
Min Temperature 64 °F 51 °F 39 °F (2014)
Cooling Degree Days 10    
Growing Degree Days 25 (Base 50)    
Moisture  
Dew Point 64 °F    
Average Humidity 71    
Maximum Humidity 87    
Minimum Humidity 49    
Precipitation  
Precipitation 0.00 in - - ()
Sea Level Pressure  
Sea Level Pressure 29.99 in    
Wind  
Wind Speed 7 mph (SSE)    
Max Wind Speed 14 mph    
Max Gust Speed 24 mph    
Visibility 10 miles    
Events      
Averages and records for this station are not official NWS values.
T = Trace of Precipitation, MM = Missing Value Source: NWS Daily Summary

Daily Weather History Graph

Daily Weather History Graph

Search for Another Location

Airport or City:

Astronomy

Sep. 16, 2019 Rise Set
Actual Time 6:53 AM CDT 7:23 PM CDT
Civil Twilight 6:24 AM CDT 7:52 PM CDT
Nautical Twilight 5:49 AM CDT 8:27 PM CDT
Astronomical Twilight 5:13 AM CDT 9:02 PM CDT
Moon 8:53 PM CDT (9/16) 9:04 AM CDT (9/16)
Length of Visible Light 13h 28m
Length of Day
12h 29m
Waning Gibbous, 94% of the Moon is Illuminated
Sep 16
Waning Gibbous
Sep 21
Last Quarter
Sep 28
New
Oct 5
First Quarter
Oct 13
Full

Hourly Weather History & Observations

Time (CDT) Temp. Heat Index Dew Point Humidity Pressure Visibility Wind Dir Wind Speed Gust Speed Precip Events Conditions
12:53 AM 66.0 °F - 61.0 °F 84% 29.99 in 10.0 mi SSE 3.5 mph - N/A   Clear
1:53 AM 66.0 °F - 61.0 °F 84% 30.00 in 10.0 mi SSE 3.5 mph - N/A   Clear
2:53 AM 64.9 °F - 61.0 °F 87% 30.01 in 10.0 mi SSW 3.5 mph - N/A   Clear
3:53 AM 66.0 °F - 60.1 °F 81% 30.01 in 10.0 mi South 8.1 mph - N/A   Clear
4:53 AM 66.0 °F - 60.1 °F 81% 30.02 in 10.0 mi Calm Calm - N/A   Clear
5:53 AM 66.0 °F - 60.1 °F 81% 30.01 in 10.0 mi ESE 5.8 mph - N/A   Clear
6:53 AM 64.0 °F - 57.9 °F 80% 30.02 in 10.0 mi SE 6.9 mph - N/A   Clear
7:53 AM 66.9 °F - 60.1 °F 79% 30.02 in 10.0 mi SE 9.2 mph - N/A   Clear
8:53 AM 70.0 °F - 62.1 °F 76% 30.02 in 10.0 mi SSE 6.9 mph - N/A   Clear
9:53 AM 75.0 °F - 62.1 °F 64% 30.02 in 10.0 mi SSE 9.2 mph - N/A   Clear
10:53 AM 79.0 °F - 61.0 °F 54% 30.01 in 10.0 mi SSE 12.7 mph - N/A   Clear
11:53 AM 81.0 °F 82.2 °F 63.0 °F 54% 30.00 in 10.0 mi SSE 13.8 mph 21.9 mph N/A   Clear
12:53 PM 82.9 °F 84.4 °F 64.0 °F 53% 29.99 in 10.0 mi South 11.5 mph 21.9 mph N/A   Clear
1:53 PM 84.0 °F 84.9 °F 63.0 °F 49% 29.97 in 10.0 mi SSE 13.8 mph - N/A   Clear
2:53 PM 86.0 °F 89.4 °F 68.0 °F 55% 29.96 in 10.0 mi South 13.8 mph 24.2 mph N/A   Clear
3:53 PM 86.0 °F 90.7 °F 70.0 °F 59% 29.96 in 10.0 mi SSE 13.8 mph - N/A   Clear
4:53 PM 82.9 °F 87.0 °F 70.0 °F 65% 29.95 in 10.0 mi SSE 11.5 mph 20.7 mph N/A   Clear
5:53 PM 81.0 °F 84.1 °F 69.1 °F 67% 29.95 in 10.0 mi SSE 9.2 mph - N/A   Clear
6:53 PM 79.0 °F - 69.1 °F 72% 29.95 in 10.0 mi SSE 10.4 mph - N/A   Clear
7:53 PM 77.0 °F - 68.0 °F 74% 29.95 in 10.0 mi SSE 9.2 mph - N/A   Clear
8:53 PM 77.0 °F - 69.1 °F 76% 29.95 in 10.0 mi SSE 9.2 mph - N/A   Clear
9:53 PM 77.0 °F - 69.1 °F 76% 29.96 in 10.0 mi SE 5.8 mph - N/A   Clear
11:53 PM 75.0 °F - 66.9 °F 76% 29.96 in 10.0 mi South 4.6 mph - N/A   Clear